Regional Weather Roundup
Issued by NWS

Home | Current Version | Previous Version | Text Only | Print | Product List | Glossary On
Versions: 1 2 3 4 5 6 7 8 9 10 11 12 13 14 15 16 17 18 19 20 21 22 23 24 25 26 27 28 29 30 31 32 33 34 35 36 37 38 39 40 41 42 43 44 45 46 47 48 49
000
ASUS46 KSEW 301910
RWRWA

WASHINGTON REGIONAL WEATHER ROUNDUP
NATIONAL WEATHER SERVICE SEATTLE WA
1100 AM PST FRI JAN 30 2015

NOTE:"FAIR" INDICATES FEW OR NO CLOUDS BELOW 12,000 FEET WITH NO
SIGNIFICANT WEATHER AND/OR OBSTRUCTIONS TO VISIBILITY.

WAZ505-507>509-302000-
SEATTLE, TACOMA, EVERETT, AND VICINITY

CITY           SKY/WX    TMP DP  RH WIND       PRES   REMARKS
EVERETT        SUNNY     46  40  79 VRB5      30.30F
BOEING FIELD   FOG       39  38  96 CALM      30.33F VSB 1/2
RENTON         FOG       37  37 100 S3        30.32F VSB 1/2
SEATAC AIRPORT FOG       41  38  89 CALM      30.31F VSB 1
JBLM-MCCHORD   CLOUDY    41  41 100 E1        30.30F FOG
PUYALLUP       FOG       37  37 100 CALM      30.30F VSB<1/4
BREMERTON      CLOUDY    39  37  93 CALM      30.33S
JBLM-FT LEWIS  FOG       40  40 100 CALM      30.30F VSB 1/2
TACOMA NARROWS CLOUDY    42  40  92 CALM      30.31F FOG
$$

WAZ001-503-506-510-514-515-302000-
NORTH INTERIOR

CITY           SKY/WX    TMP DP  RH WIND       PRES   REMARKS
BELLINGHAM     SUNNY     44  38  79 CALM      30.32R
FRIDAY HARBOR  MOSUNNY   45  43  93 NE5       30.33R
EASTSOUND      SUNNY     45  39  81 CALM      30.31R
PORT ANGELES   SUNNY     47  42  83 CALM      30.32R
NAS WHIDBEY    FOG       41  38  89 SE7       30.32S VSB 1/8
ARLINGTON      SUNNY     39  36  87 CALM      30.33R
BURLINGTON     SUNNY     43 N/A N/A SW6       30.33R
$$

WAZ020-022-039-040-504-511-512-302000-
SOUTHWEST INTERIOR

CITY           SKY/WX    TMP DP  RH WIND       PRES   REMARKS
SHELTON        FOG       38  37  97 E3        30.29F VSB 1/4
OLYMPIA        FOG       39  38  96 NE3       30.32S VSB 1/2
CHEHALIS       FOG       39  39 100 CALM      30.32S VSB<1/4
KELSO          CLOUDY    39  36  87 CALM      30.36S
VANCOUVER      CLOUDY    38  36  92 W5        30.32F FOG
SCAPPOOSE, OR  FOG       38  37  97 CALM      30.33F VSB 1/4
PORTLAND, OR   MOSUNNY   39  37  92 W7        30.32F
$$

WAZ021-516-517-302000-
WASHINGTON COAST

CITY           SKY/WX    TMP DP  RH WIND       PRES   REMARKS
FORKS          MOSUNNY   44  42  93 S3        30.31S
HOQUIAM        MOSUNNY   42  40  92 E9        30.29F FOG
ASTORIA, OR    SUNNY     46  42  86 E7        30.27S
$$

WAZ019-023-024-040-518-519-302000-
CASCADE MOUNTAINS AND COLUMBIA GORGE

CITY           SKY/WX    TMP DP  RH WIND       PRES   REMARKS
TROUTDALE, OR  SUNNY     46  34  62 E23G30    30.30F
THE DALLES, OR CLOUDY    41  35  79 E6        30.47S
$$

WAZ026-027-041>044-520-521-302000-
EAST SLOPES

CITY           SKY/WX    TMP DP  RH WIND       PRES   REMARKS
OMAK           CLOUDY    35  32  88 VRB3      30.41F
WENATCHEE      CLOUDY    35  30  82 W7        30.43R
ELLENSBURG     CLOUDY    36  32  85 CALM      30.39S
YAKIMA         CLOUDY    38  32  79 S3        30.43S
$$

WAZ028-034-035-302000-
COLUMBIA BASIN

CITY           SKY/WX    TMP DP  RH WIND       PRES   REMARKS
EPHRATA        CLOUDY    36  34  92 SE5       30.41S
MOSES LAKE     CLOUDY    36  34  92 E5        30.42F
PASCO          CLOUDY    39  36  89 NW3       30.47S
HERMISTON, OR  CLOUDY    38  35  89 NW5       30.45S
$$

WAZ036>038-302000-
NORTHEAST WASHINGTON

CITY           SKY/WX    TMP DP  RH WIND       PRES   REMARKS
SPOKANE GEIGER FOG       31  28  89 VRB3      30.37S VSB 1/4
SPOKANE FELTS  CLOUDY    31  29  92 CALM      30.40S
FAIRCHILD AFB  MIX PCPN  28  28 100 SE2       30.36F FOG
COEURDALENE,ID CLOUDY    30  28  93 N5        30.36S
DEER PARK      CLOUDY    29  28  96 CALM      30.39S
$$

WAZ029>033-302000-
SOUTHEAST WASHINGTON

CITY           SKY/WX    TMP DP  RH WIND       PRES   REMARKS
PULLMAN        CLOUDY    32  32 100 NW3       30.37S FOG
LEWISTON, ID   CLOUDY    37  35  92 NE5       30.40S
WALLA WALLA    CLOUDY    36  32  85 S7        30.42F FOG
PENDLETON, OR  CLOUDY    34  31  88 S3        30.41F
$$


USA.gov is the U.S. government's official web portal to all federal, state and local government web resources and services.